Weather History for Rhinelander, WI

Change the Weather History Date:

Monday, August 5, 2013

  Actual Average Record
Temperature  
Mean Temperature 59 °F 66 °F  
Max Temperature 68 °F 79 °F 95 °F (1947)
Min Temperature 50 °F 54 °F 35 °F (1912)
Degree Days  
Heating Degree Days 6 2  
Month to date heating degree days 31 8  
Since 1 June heating degree days 289 193  
Since 1 July heating degree days 115 59  
Cooling Degree Days 0 3  
Month to date cooling degree days 0 15  
Year to date cooling degree days 186 185  
Since 1 June cooling degree days 172 173  
Growing Degree Days 10 (Base 50)    
Moisture  
Dew Point 58 °F    
Average Humidity 87    
Maximum Humidity 97    
Minimum Humidity 77    
Precipitation  
Precipitation 0.62 in 0.10 in 2.02 in (1935)
Month to date precipitation 0.68 0.53  
Year to date precipitation 22.05 18.12  
Snow  
Snow 0.00 in - 0.00 in ()
Month to date snowfall 0.0  
Since 1 June snowfall 0.0  
Since 1 July snowfall 0.0  
Snow Depth 0.00 in    
Sea Level Pressure  
Sea Level Pressure 29.93 in    
Wind  
Wind Speed 3 mph (South)    
Max Wind Speed 10 mph    
Max Gust Speed 13 mph    
Visibility 8 miles    
Events Rain    
T = Trace of Precipitation, MM = Missing Value Source: NWS Daily Summary

Daily Weather History Graph

Daily Weather History Graph

Search for Another Location

Airport:

Trip Planner

Search our weather history database for the weather conditions in past years. The results will help you decide how hot, cold, wet, or windy it might be!

Date:

Astronomy

Aug. 05, 2013 Rise Set
Actual Time 5:46 AM CDT 8:20 PM CDT
Civil Twilight 5:12 AM CDT 8:54 PM CDT
Nautical Twilight 4:30 AM CDT 9:36 PM CDT
Astronomical Twilight 3:41 AM CDT 10:24 PM CDT
Moon 4:42 AM CDT (8/5) 7:18 PM CDT (8/5)
Length of Visible Light 15h 41m
Length of Day
14h 34m
Waning Crescent, 1% of the Moon is Illuminated
Aug 5
Waning Crescent
Aug 6
New
Aug 14
First Quarter
Aug 20
Full
Aug 28
Last Quarter

Hourly Weather History & Observations

Time (CDT) Temp. Dew Point Humidity Pressure Visibility Wind Dir Wind Speed Gust Speed Precip Events Conditions
12:53 AM 55.9 °F 48.9 °F 77% 30.09 in 10.0 mi Calm Calm - N/A   Partly Cloudy
1:53 AM 51.1 °F 48.0 °F 89% 30.09 in 10.0 mi Calm Calm - N/A   Clear
2:53 AM 52.0 °F 48.9 °F 89% 30.06 in 10.0 mi SSE 3.5 mph - N/A   Partly Cloudy
3:53 AM 51.1 °F 48.0 °F 89% 30.06 in 10.0 mi Calm Calm - N/A   Clear
4:53 AM 52.0 °F 48.9 °F 89% 30.07 in 10.0 mi Calm Calm - N/A   Overcast
5:53 AM 53.1 °F 50.0 °F 89% 30.04 in 10.0 mi Calm Calm - N/A   Overcast
6:53 AM 55.0 °F 52.0 °F 89% 30.01 in 10.0 mi Calm Calm - 0.01 in   Overcast
7:53 AM 55.9 °F 52.0 °F 87% 30.01 in 10.0 mi South 3.5 mph - N/A   Overcast
8:53 AM 57.0 °F 53.1 °F 87% 30.00 in 10.0 mi South 4.6 mph - N/A   Overcast
9:53 AM 57.9 °F 54.0 °F 87% 29.99 in 10.0 mi SSW 5.8 mph - N/A   Overcast
10:02 AM 57.2 °F 53.6 °F 88% 29.97 in 10.0 mi SSW 8.1 mph - N/A   Overcast
10:18 AM 57.2 °F 55.4 °F 94% 29.97 in 10.0 mi Variable 5.8 mph - 0.00 in Rain Light Rain
10:28 AM 57.2 °F 55.4 °F 94% 29.96 in 10.0 mi South 4.6 mph - 0.00 in   Overcast
10:53 AM 57.9 °F 55.0 °F 90% 29.99 in 2.5 mi Variable 4.6 mph - 0.03 in Rain Rain
11:00 AM 57.2 °F 55.4 °F 94% 29.98 in 1.0 mi Calm Calm - 0.09 in Rain Heavy Rain
11:17 AM 57.2 °F 55.4 °F 94% 29.96 in 1.0 mi SSW 6.9 mph - 0.28 in Rain Heavy Rain
11:35 AM 57.2 °F 57.2 °F 100% 29.96 in 3.0 mi South 5.8 mph - 0.33 in Rain Light Rain
11:53 AM 59.0 °F 57.0 °F 93% 29.97 in 5.0 mi South 4.6 mph - 0.35 in Rain Light Rain
12:53 PM 60.1 °F 57.9 °F 93% 29.95 in 7.0 mi South 5.8 mph - 0.00 in Rain Light Rain
1:38 PM 60.8 °F 59.0 °F 94% 29.93 in 6.0 mi Calm Calm - 0.03 in Rain Light Rain
1:45 PM 60.8 °F 59.0 °F 94% 29.93 in 4.0 mi South 3.5 mph - 0.04 in Rain Light Rain
1:53 PM 61.0 °F 59.0 °F 93% 29.94 in 1.8 mi SSE 3.5 mph - 0.07 in Rain Heavy Rain
2:00 PM 60.8 °F 59.0 °F 94% 29.93 in 3.0 mi Calm Calm - 0.01 in Rain Light Rain
2:13 PM 62.6 °F 59.0 °F 88% 29.93 in 7.0 mi Calm Calm - 0.01 in   Overcast
2:53 PM 63.0 °F 61.0 °F 93% 29.92 in 10.0 mi South 3.5 mph - 0.01 in   Overcast
3:17 PM 64.4 °F 60.8 °F 88% 29.91 in 10.0 mi South 4.6 mph - 0.00 in   Overcast
3:25 PM 64.4 °F 60.8 °F 88% 29.91 in 10.0 mi South 3.5 mph - 0.00 in   Overcast
3:53 PM 64.9 °F 61.0 °F 87% 29.91 in 10.0 mi South 5.8 mph - 0.00 in   Overcast
4:10 PM 66.2 °F 60.8 °F 83% 29.89 in 10.0 mi South 6.9 mph - N/A   Overcast
4:41 PM 66.2 °F 60.8 °F 83% 29.89 in 10.0 mi South 3.5 mph - N/A   Overcast
4:53 PM 66.0 °F 61.0 °F 84% 29.89 in 10.0 mi SSE 4.6 mph - N/A   Overcast
5:10 PM 68.0 °F 62.6 °F 83% 29.88 in 10.0 mi ESE 5.8 mph - N/A   Mostly Cloudy
5:53 PM 64.9 °F 62.1 °F 90% 29.88 in 7.0 mi SSE 3.5 mph - 0.00 in Rain Light Rain
6:06 PM 64.4 °F 62.6 °F 94% 29.87 in 2.5 mi Calm Calm - 0.03 in Rain Light Rain
6:10 PM 64.4 °F 62.6 °F 94% 29.87 in 1.8 mi Calm Calm - 0.07 in Rain Heavy Rain
6:19 PM 64.4 °F 62.6 °F 94% 29.87 in 1.8 mi South 3.5 mph - 0.13 in Rain Light Rain
6:30 PM 64.4 °F 62.6 °F 94% 29.87 in 5.0 mi SSE 4.6 mph - 0.15 in Rain Light Rain
6:41 PM 64.4 °F 62.6 °F 94% 29.87 in 10.0 mi SSE 3.5 mph - 0.15 in Rain Light Rain
6:48 PM 64.4 °F 62.6 °F 94% 29.87 in 10.0 mi Calm Calm - 0.15 in   Overcast
6:53 PM 64.9 °F 62.1 °F 90% 29.87 in 10.0 mi Calm Calm - 0.15 in   Overcast
7:02 PM 64.4 °F 62.6 °F 94% 29.87 in 10.0 mi Calm Calm - N/A   Overcast
7:53 PM 64.0 °F 63.0 °F 96% 29.86 in 10.0 mi Calm Calm - N/A   Overcast
8:06 PM 64.4 °F 62.6 °F 94% 29.86 in 10.0 mi SSW 3.5 mph - N/A   Overcast
8:21 PM 64.4 °F 62.6 °F 94% 29.86 in 10.0 mi SSW 4.6 mph - N/A   Overcast
8:53 PM 63.0 °F 61.0 °F 93% 29.86 in 10.0 mi South 4.6 mph - N/A   Mostly Cloudy
9:53 PM 62.1 °F 60.1 °F 93% 29.87 in 10.0 mi Calm Calm - N/A   Overcast
10:06 PM 62.6 °F 60.8 °F 94% 29.87 in 10.0 mi SW 3.5 mph - N/A   Overcast
10:53 PM 62.1 °F 60.1 °F 93% 29.87 in 10.0 mi SW 6.9 mph - N/A   Overcast
11:23 PM 62.6 °F 60.8 °F 94% 29.87 in 10.0 mi SSW 4.6 mph - N/A   Mostly Cloudy
11:32 PM 60.8 °F 60.8 °F 100% 29.87 in 9.0 mi SSW 5.8 mph - N/A   Mostly Cloudy
11:53 PM 62.1 °F 60.1 °F 93% 29.88 in 9.0 mi SSW 4.6 mph - N/A   Overcast
11:57 PM 62.6 °F 60.8 °F 94% 29.88 in 9.0 mi SSW 4.6 mph - N/A   Mostly Cloudy